Regional Weather Roundup
Issued by NWS

Home | Current Version | Previous Version | Graphics & Text | Print | Product List | Glossary Off
Versions: 1 2 3 4 5 6 7 8 9 10 11 12 13 14 15 16 17 18 19 20 21 22 23 24 25 26 27 28 29 30 31 32 33 34 35 36 37 38 39 40 41 42 43 44 45 46 47 48 49 50

000
ASUS43 KDMX 251308
RWRIA

WEATHER ROUNDUP FOR IOWA
NATIONAL WEATHER SERVICE DES MOINES IA
800 AM CDT SUN SEP 25 2016

NOTE: "FAIR" INDICATES FEW OR NO CLOUDS BELOW 12,000 FEET WITH NO
SIGNIFICANT WEATHER AND/OR OBSTRUCTIONS TO VISIBILITY.

* - THESE STATIONS ARE NOT NWS STATIONS...THUS NOT UNDER NWS
QUALITY CONTROL.  THEY ALSO DO NOT REPORT WEATHER SUCH
AS PRECIPITATION OR FOG.

IAZ001>003-012>014-020>022-031>034-043>046-251400-
   NORTHWEST IOWA

CITY           SKY/WX    TMP DP  RH WIND       PRES   REMARKS
CARROLL *      CLOUDY    57  54  88 NW8G15    30.04R
CHEROKEE *     PTCLDY    53  50  89 SW5       30.04R
DENISON *      CLOUDY    57  52  82 W6        30.05R
LE MARS *      CLEAR     54  48  82 SW6       30.05S
ORANGE CITY *  CLEAR     52  46  82 W8        30.03S
SHELDON *      CLEAR     52  50  93 SW7       30.00S
SIOUX CITY     PTCLDY    56  48  74 W12       30.06R
SPENCER        CLOUDY    55  50  83 W10       30.02R
STORM LAKE *   CLOUDY    55  50  82 W10       30.04S
$$

IAZ055>058-069>071-079>083-090>094-251400-
   SOUTHWEST IOWA

CITY           SKY/WX    TMP DP  RH WIND       PRES   REMARKS
ATLANTIC *     CLOUDY    59  55  88 NW9G18    30.06R
AUDUBON *      CLOUDY    57  54  88 NW7G17    30.06R
CLARINDA *       N/A     61  54  77 MISG      30.09R
COUNCIL BLFS * CLOUDY    57  50  77 NW10      30.10R
CRESTON *      CLOUDY    66  64  94 W15       30.04R
HARLAN  *      CLOUDY    57  54  88 NW7G13    30.11R
LAMONI         MOCLDY    69  67  93 W10       30.03R
RED OAK *      CLOUDY    59  54  82 NW8       30.08R
SHENANDOAH *   MOCLDY    59  54  82 VRB6      30.10R
$$

IAZ047>049-059>061-072>074-084-251400-
   CENTRAL IOWA

CITY           SKY/WX    TMP DP  RH WIND       PRES   REMARKS
AMES           CLOUDY    66  65  96 W14       29.99R
ANKENY *         N/A    N/A N/A N/A MISG        N/A
BOONE *        CLOUDY    64  63  94 W14       30.00R
CHARITON *       N/A     68  66  94 S7        30.00F
DES MOINES     LGT RAIN  69  68  96 S5        29.98R
GRINNELL*      CLOUDY    68  66  94 SW7       30.00S
KNOXVILLE *    CLOUDY    70  66  88 SW6       29.97F
MARSHALLTOWN   MOCLDY    69  68  96 SW9       29.98S
NEWTON *       PTCLDY    68  68 100 SW7       29.98S
PELLA *        CLOUDY    69  67  92 SW7       30.00F
PERRY *        LGT RAIN  61  60  96 NW7       30.01R
$$

IAZ004>006-015-016-023>025-035-036-251400-
   NORTH CENTRAL IOWA

CITY           SKY/WX    TMP DP  RH WIND       PRES   REMARKS
ALGONA *       CLOUDY    59  55  88 W9        30.01R
CLARION *        N/A     64  64 100 W8G15     29.99R
ESTHERVILLE    PTCLDY    55  51  86 W8        30.00R
FORT DODGE *   CLOUDY    59  55  88 W7        30.02R
MASON CITY     LGT RAIN  65  63  93 W15       29.98R FOG
FOREST CITY *  RAIN      63  63 100 W9        29.98R
WEBSTER CITY * LGT RAIN  63  63 100 W12       29.98R
IOWA FALLS *   CLOUDY    68  67  94 SW9       29.99R
$$

IAZ007>011-017>019-026>030-037>042-050>054-066-251400-
   NORTHEAST IOWA

CITY           SKY/WX    TMP DP  RH WIND       PRES   REMARKS
CEDAR RAPIDS   MOSUNNY   69  69 100 S6        29.98R FOG
CHARLES CITY * CLOUDY    68  68 100 S9        29.97S FOG
CLINTON *      PTSUNNY   69  66  90 SE12      30.01S FOG
DECORAH *      CLOUDY    66  66 100 S7        29.96R FOG
DUBUQUE        MOSUNNY   66  64  93 S7        30.01S FOG
MONTICELLO *   SUNNY     66  66 100 SE8       29.98F FOG
OELWEIN *      CLOUDY    66  66 100 SW7       29.99R FOG
WATERLOO       CLOUDY    68  67  96 S6        29.96R FOG
$$

IAZ064-065-067-068-078-251400-
   EAST CENTRAL IOWA

CITY           SKY/WX    TMP DP  RH WIND       PRES   REMARKS
DAVENPORT      MOSUNNY   69  65  86 S7        30.02R
IOWA CITY      SUNNY     69  66  90 CALM      29.99S
MT. PLEASANT * SUNNY     73  71  92 S6        30.00R
MUSCATINE *    SUNNY     70  66  88 CALM      29.99S FOG
QUAD CITIES    CLOUDY    70  65  84 VRB3      30.01R
$$

IAZ062-063-075>077-085>089-095>099-251400-
   SOUTHEAST IOWA

CITY           SKY/WX    TMP DP  RH WIND       PRES   REMARKS
BURLINGTON     MOSUNNY   71  68  90 S9        30.00S
FAIRFIELD *    SUNNY     70  66  88 S8        30.00R
FORT MADISON * MOSUNNY   70  66  88 S6        30.01S
KEOKUK *       MOSUNNY   72  68  88 VRB6      30.00R
OSKALOOSA *      N/A     68  67  97 W6        30.00R
CENTERVILLE *    N/A     70  66  88 SW6       30.03S
OTTUMWA        MOSUNNY   68  66  93 W6        30.00R
WASHINGTON *     N/A    N/A N/A N/A MISG        N/A
$$

ABBREVIATIONS USED IN REMARKS
   TC - TEMPERATURES IN CELSIUS
  WCI - WIND CHILL INDEX
   HX - HEAT INDEX
  VSB - VISIBILITY
$$





USA.gov is the U.S. government's official web portal to all federal, state and local government web resources and services.